| time (UTC) | temp C | wind direction | speed KPH | gust KPH | rain 1hr cm | rain 24hr cm | rain mn cm | humidity % | barometer mb |
| 20260507060053 | 6 | 0 | 0.0 | 0.0 | 0.00 | 0.00 | 0.00 | 87 | 1020.4 |
| 20260507054554 | 6 | 0 | 0.0 | 0.0 | 0.00 | 0.00 | 0.00 | 86 | 1020.3 |
| 20260507053055 | 6 | 0 | 0.0 | 0.0 | 0.00 | 0.00 | 0.00 | 86 | 1020.2 |
| 20260507051555 | 6 | 0 | 0.0 | 0.0 | 0.00 | 0.00 | 0.00 | 85 | 1020.0 |
| 20260507044603 | 7 | 0 | 0.0 | 0.0 | 0.00 | 0.00 | 0.00 | 84 | 1019.7 |
| 20260507043104 | 7 | 0 | 0.0 | 0.0 | 0.00 | 0.00 | 0.00 | 84 | 1019.1 |
| 20260507041554 | 7 | 0 | 0.0 | 0.0 | 0.00 | 0.00 | 0.00 | 82 | 1019.2 |
| 20260507040052 | 8 | 0 | 0.0 | 0.0 | 0.00 | 0.00 | 0.00 | 81 | 1019.1 |
| 20260507034554 | 8 | 0 | 0.0 | 0.0 | 0.00 | 0.00 | 0.00 | 78 | 1019.4 |
| 20260507033059 | 9 | 0 | 0.0 | 0.0 | 0.00 | 0.00 | 0.00 | 78 | 1019.2 |
| 20260507031555 | 10 | 0 | 0.0 | 0.0 | 0.00 | 0.00 | 0.00 | 76 | 1018.9 |
| 20260507030105 | 10 | 0 | 0.0 | 0.0 | 0.00 | 0.00 | 0.00 | 73 | 1018.8 |
| 20260507024600 | 11 | 0 | 0.0 | 0.0 | 0.00 | 0.00 | 0.00 | 70 | 1018.6 |
| 20260507023052 | 12 | 0 | 0.0 | 0.0 | 0.00 | 0.00 | 0.00 | 67 | 1018.4 |
| 20260507021613 | 13 | 0 | 0.0 | 0.0 | 0.00 | 0.00 | 0.00 | 63 | 1018.0 |
| 20260507020106 | 13 | 0 | 0.0 | 1.6 | 0.00 | 0.00 | 0.00 | 60 | 1018.0 |
| 20260507014612 | 14 | 0 | 0.0 | 1.6 | 0.00 | 0.00 | 0.00 | 60 | 1017.8 |
| 20260507013056 | 15 | 0 | 0.0 | 1.6 | 0.00 | 0.00 | 0.00 | 60 | 1017.7 |
| 20260507011554 | 15 | 0 | 0.0 | 4.8 | 0.00 | 0.00 | 0.00 | 58 | 1017.7 |
| 20260507010111 | 15 | 0 | 0.0 | 1.6 | 0.00 | 0.00 | 0.00 | 58 | 1017.6 |
| 20260507004557 | 15 | 0 | 0.0 | 1.6 | 0.00 | 0.00 | 0.00 | 59 | 1017.5 |
| 20260507003051 | 16 | 0 | 0.0 | 4.8 | 0.00 | 0.00 | 0.00 | 59 | 1017.3 |
| 20260507001602 | 16 | 0 | 0.0 | 1.6 | 0.00 | 0.00 | 0.00 | 59 | 1017.2 |
| 20260507000051 | 16 | 0 | 0.0 | 3.2 | 0.00 | 0.00 | 0.00 | 57 | 1017.0 |
| 20260506234555 | 16 | 209 | 0.0 | 4.8 | 0.00 | 0.00 | 0.00 | 54 | 1016.8 |
| 20260506233055 | 17 | 43 | 0.0 | 3.2 | 0.00 | 0.00 | 0.00 | 55 | 1016.6 |
| 20260506231554 | 17 | 267 | 0.0 | 4.8 | 0.00 | 0.00 | 0.00 | 55 | 1016.4 |
| 20260506230103 | 17 | 0 | 0.0 | 4.8 | 0.00 | 0.00 | 0.00 | 54 | 1016.5 |
| 20260506224558 | 17 | 314 | 1.6 | 4.8 | 0.00 | 0.00 | 0.00 | 54 | 1016.3 |
| 20260506223058 | 17 | 44 | 1.6 | 6.4 | 0.00 | 0.00 | 0.00 | 53 | 1016.1 |
| 20260506221558 | 17 | 61 | 1.6 | 9.7 | 0.00 | 0.00 | 0.00 | 56 | 1015.7 |
| 20260506220056 | 18 | 204 | 0.0 | 3.2 | 0.00 | 0.00 | 0.00 | 52 | 1015.9 |
| 20260506214553 | 17 | 0.0 | 0.0 | 0.00 | 0.00 | 0.00 | 53 | 1016.0 | |
| 20260506213056 | 17 | 284 | 1.6 | 6.4 | 0.00 | 0.00 | 0.00 | 54 | 1016.1 |
| 20260506211555 | 17 | 76 | 1.6 | 9.7 | 0.00 | 0.00 | 0.00 | 53 | 1016.2 |
| 20260506210100 | 17 | 136 | 1.6 | 3.2 | 0.00 | 0.00 | 0.00 | 54 | 1016.3 |
| 20260506204554 | 17 | 44 | 0.0 | 3.2 | 0.00 | 0.00 | 0.00 | 59 | 1016.5 |
| 20260506203104 | 17 | 76 | 1.6 | 4.8 | 0.00 | 0.00 | 0.00 | 57 | 1016.7 |
| 20260506201620 | 17 | 269 | 1.6 | 9.7 | 0.00 | 0.00 | 0.00 | 58 | 1016.8 |
| 20260506200054 | 17 | 30 | 1.6 | 4.8 | 0.00 | 0.00 | 0.00 | 58 | 1016.7 |
| 20260506194557 | 17 | 259 | 1.6 | 4.8 | 0.00 | 0.00 | 0.00 | 58 | 1017.0 |
| 20260506193056 | 16 | 315 | 1.6 | 8.0 | 0.00 | 0.00 | 0.00 | 59 | 1017.1 |
| 20260506191559 | 16 | 239 | 1.6 | 8.0 | 0.00 | 0.00 | 0.00 | 60 | 1017.2 |
| 20260506190056 | 16 | 105 | 1.6 | 6.4 | 0.00 | 0.00 | 0.00 | 59 | 1017.3 |
| 20260506184558 | 16 | 345 | 3.2 | 11.3 | 0.00 | 0.00 | 0.00 | 59 | 1017.4 |
| 20260506183055 | 16 | 40 | 1.6 | 9.7 | 0.00 | 0.00 | 0.00 | 60 | 1017.6 |
| 20260506181553 | 16 | 47 | 3.2 | 11.3 | 0.00 | 0.00 | 0.00 | 59 | 1017.7 |
| 20260506180057 | 16 | 0 | 3.2 | 12.9 | 0.00 | 0.00 | 0.00 | 61 | 1017.8 |
| 20260506174552 | 16 | 50 | 1.6 | 8.0 | 0.00 | 0.00 | 0.00 | 64 | 1018.0 |
| 20260506173112 | 16 | 76 | 1.6 | 6.4 | 0.00 | 0.00 | 0.00 | 59 | 1018.0 |
| 20260506171558 | 16 | 315 | 1.6 | 14.5 | 0.00 | 0.00 | 0.00 | 62 | 1018.0 |
| 20260506170055 | 16 | 284 | 4.8 | 17.7 | 0.00 | 0.00 | 0.00 | 57 | 1018.1 |
| 20260506164555 | 15 | 56 | 3.2 | 14.5 | 0.00 | 0.00 | 0.00 | 61 | 1018.2 |
| 20260506163104 | 15 | 78 | 4.8 | 12.9 | 0.00 | 0.00 | 0.00 | 60 | 1018.4 |
| 20260506161559 | 15 | 44 | 3.2 | 14.5 | 0.00 | 0.00 | 0.00 | 64 | 1018.3 |
| 20260506160052 | 14 | 195 | 1.6 | 9.7 | 0.00 | 0.00 | 0.00 | 64 | 1018.1 |
| 20260506154601 | 13 | 11 | 3.2 | 14.5 | 0.00 | 0.00 | 0.00 | 66 | 1018.2 |
| 20260506153054 | 13 | 209 | 1.6 | 9.7 | 0.00 | 0.00 | 0.00 | 66 | 1018.1 |
| 20260506151551 | 12 | 22 | 1.6 | 8.0 | 0.00 | 0.00 | 0.00 | 71 | 1018.1 |
| 20260506144602 | 11 | 352 | 4.8 | 12.9 | 0.00 | 0.00 | 0.00 | 74 | 1017.7 |
| 20260506143051 | 10 | 176 | 1.6 | 6.4 | 0.00 | 0.00 | 0.00 | 78 | 1017.5 |
| 20260506141558 | 10 | 15 | 1.6 | 14.5 | 0.00 | 0.00 | 0.00 | 78 | 1017.5 |
| 20260506134600 | 9 | 0 | 1.6 | 6.4 | 0.00 | 0.00 | 0.00 | 80 | 1017.7 |
| 20260506133110 | 9 | 29 | 0.0 | 11.3 | 0.00 | 0.00 | 0.00 | 81 | 1017.8 |
| 20260506131558 | 9 | 0 | 0.0 | 6.4 | 0.00 | 0.00 | 0.00 | 82 | 1017.5 |
| 20260506130056 | 8 | 286 | 0.0 | 6.4 | 0.00 | 0.00 | 0.00 | 83 | 1017.5 |
| 20260506124550 | 8 | 295 | 0.0 | 4.8 | 0.00 | 0.00 | 0.00 | 84 | 1017.3 |
| 20260506123053 | 8 | 0 | 0.0 | 3.2 | 0.00 | 0.00 | 0.00 | 84 | 1016.8 |
| 20260506121603 | 8 | 0 | 0.0 | 3.2 | 0.00 | 0.00 | 0.00 | 84 | 1016.7 |
| 20260506120109 | 8 | 124 | 0.0 | 3.2 | 0.00 | 0.00 | 0.00 | 84 | 1016.5 |
| 20260506114603 | 8 | 0 | 0.0 | 3.2 | 0.00 | 0.00 | 0.00 | 84 | 1016.5 |
| 20260506113050 | 8 | 0 | 0.0 | 0.0 | 0.00 | 0.00 | 0.00 | 83 | 1016.2 |
| 20260506111554 | 8 | 0.0 | 0.0 | 0.00 | 0.00 | 0.00 | 83 | 1016.1 | |
| 20260506110050 | 8 | 0.0 | 0.0 | 0.00 | 0.00 | 0.00 | 82 | 1016.0 | |
| 20260506104548 | 8 | 0.0 | 0.0 | 0.00 | 0.00 | 0.00 | 82 | 1016.8 | |
| 20260506103051 | 8 | 0 | 0.0 | 1.6 | 0.00 | 0.00 | 0.00 | 82 | 1016.6 |
| 20260506101553 | 8 | 0 | 0.0 | 1.6 | 0.00 | 0.00 | 0.00 | 81 | 1016.4 |
| 20260506100051 | 8 | 0 | 0.0 | 1.6 | 0.00 | 0.00 | 0.00 | 81 | 1016.4 |
| 20260506094552 | 8 | 0 | 0.0 | 1.6 | 0.00 | 0.00 | 0.00 | 81 | 1015.8 |
| 20260506093112 | 8 | 0 | 0.0 | 3.2 | 0.00 | 0.00 | 0.00 | 81 | 1015.5 |
| 20260506091551 | 8 | 0 | 0.0 | 1.6 | 0.00 | 0.00 | 0.00 | 81 | 1015.4 |
| 20260506090056 | 8 | 176 | 0.0 | 1.6 | 0.00 | 0.00 | 0.00 | 80 | 1015.1 |
| 20260506084554 | 8 | 0 | 0.0 | 4.8 | 0.00 | 0.00 | 0.00 | 80 | 1015.4 |
| 20260506083055 | 8 | 0 | 0.0 | 4.8 | 0.00 | 0.00 | 0.00 | 81 | 1014.6 |
| 20260506081553 | 8 | 278 | 0.0 | 3.2 | 0.00 | 0.00 | 0.00 | 81 | 1014.4 |
| 20260506080111 | 8 | 29 | 0.0 | 3.2 | 0.00 | 0.00 | 0.00 | 79 | 1014.0 |
| 20260506073111 | 8 | 101 | 3.2 | 0.0 | 0.00 | 0.00 | 0.00 | 78 | 1013.8 |
| 20260506071557 | 9 | 11 | 0.0 | 4.8 | 0.00 | 0.00 | 0.00 | 77 | 1013.7 |
| 20260506061601 | 9 | 315 | 0.0 | 1.6 | 0.00 | 0.00 | 0.00 | 76 | 1013.8 |